Change the Weather History Date:

Wednesday, November 16, 2011

  Actual Average Record
Temperature  
Mean Temperature 50 °F -  
Max Temperature 59 °F 48 °F 73 °F (1993)
Min Temperature 41 °F 27 °F 8 °F (1996)
Degree Days  
Heating Degree Days 15    
Moisture  
Dew Point 47 °F    
Average Humidity 88    
Maximum Humidity 100    
Minimum Humidity 67    
Precipitation  
Precipitation 0.20 in - - ()
Sea Level Pressure  
Sea Level Pressure 29.85 in    
Wind  
Wind Speed 1 mph (NW)    
Max Wind Speed 7 mph    
Max Gust Speed -    
Visibility 7 miles    
Events Fog , Rain    
Averages and records for this station are not official NWS values.
T = Trace of Precipitation, MM = Missing Value Source: NWS Daily Summary

Daily Weather History Graph

Daily Weather History Graph

Search for Another Location

Airport or City:

Trip Planner

Search our weather history database for the weather conditions in past years. The results will help you decide how hot, cold, wet, or windy it might be!

Date:

Astronomy

Nov. 16, 2011 Rise Set
Actual Time 6:38 AM EST 4:21 PM EST
Civil Twilight 6:08 AM EST 4:52 PM EST
Nautical Twilight 5:33 AM EST 5:26 PM EST
Astronomical Twilight 5:00 AM EST 6:00 PM EST
Moon 9:33 PM EST (11/16) 11:12 AM EST (11/16)
Length of Visible Light 10h 44m
Length of Day
9h 42m
Waning Gibbous, 70% of the Moon is Illuminated
Nov 16
Waning Gibbous
Nov 18
Last Quarter
Nov 25
New
Dec 2
First Quarter
Dec 10
Full

Hourly Weather History & Observations

Time (EST) Temp. Windchill Dew Point Humidity Pressure Visibility Wind Dir Wind Speed Gust Speed Precip Events Conditions
12:53 AM 48.9 °F - 43.0 °F 80% 29.97 in 10.0 mi Calm Calm - N/A   Mostly Cloudy
1:53 AM 46.0 °F - 42.1 °F 86% 29.99 in 10.0 mi Calm Calm - N/A   Clear
2:53 AM 44.1 °F - 41.0 °F 89% 29.97 in 10.0 mi Calm Calm - N/A   Clear
3:53 AM 43.0 °F - 39.9 °F 89% 29.97 in 10.0 mi Calm Calm - N/A   Clear
4:53 AM 43.0 °F 41.3 °F 39.9 °F 89% 29.97 in 10.0 mi North 3.5 mph - N/A   Partly Cloudy
5:53 AM 41.0 °F 39.0 °F 39.0 °F 93% 29.96 in 10.0 mi North 3.5 mph - N/A   Partly Cloudy
6:53 AM 41.0 °F - 39.0 °F 93% 29.97 in 10.0 mi Calm Calm - N/A   Partly Cloudy
7:53 AM 42.1 °F - 39.0 °F 89% 29.98 in 10.0 mi Calm Calm - N/A   Partly Cloudy
8:53 AM 46.0 °F - 39.9 °F 79% 29.97 in 10.0 mi Calm Calm - N/A   Mostly Cloudy
9:53 AM 50.0 °F - 41.0 °F 71% 29.97 in 10.0 mi Calm Calm - N/A   Mostly Cloudy
10:53 AM 53.1 °F - 43.0 °F 69% 29.92 in 10.0 mi Calm Calm - N/A   Mostly Cloudy
11:53 AM 57.0 °F - 46.9 °F 69% 29.86 in 10.0 mi South 6.9 mph - N/A   Scattered Clouds
12:53 PM 59.0 °F - 48.0 °F 67% 29.85 in 10.0 mi Calm Calm - N/A   Mostly Cloudy
1:53 PM 57.9 °F - 48.9 °F 72% 29.83 in 10.0 mi Calm Calm - 0.00 in Rain Light Rain
2:53 PM 57.0 °F - 51.1 °F 81% 29.81 in 7.0 mi SSE 5.8 mph - 0.00 in Rain Light Rain
3:53 PM 55.9 °F - 52.0 °F 87% 29.80 in 9.0 mi Calm Calm - 0.01 in Rain Light Rain
4:53 PM 55.0 °F - 53.1 °F 93% 29.78 in 7.0 mi Calm Calm - 0.03 in Rain Light Rain
5:53 PM 54.0 °F - 53.1 °F 97% 29.77 in 7.0 mi Calm Calm - 0.01 in   Overcast
6:50 PM 53.6 °F - 53.6 °F 100% 29.71 in 3.0 mi Calm Calm - 0.03 in Rain Light Rain
6:53 PM 53.1 °F - 53.1 °F 100% 29.76 in 3.0 mi Calm Calm - 0.03 in Rain Light Rain
7:53 PM 53.1 °F - 51.1 °F 93% 29.76 in 3.0 mi Calm Calm - 0.02 in Rain Light Rain
8:28 PM 53.6 °F - 51.8 °F 94% 29.73 in 1.8 mi WNW 3.5 mph - 0.03 in Rain Rain
8:53 PM 53.1 °F - 52.0 °F 96% 29.76 in 1.8 mi Calm Calm - 0.06 in Rain Light Rain
9:41 PM 51.8 °F - 51.8 °F 100% 29.72 in 0.5 mi NNW 3.5 mph - 0.02 in Fog , Rain Light Rain
9:53 PM 52.0 °F - 51.1 °F 97% 29.76 in 0.5 mi Calm Calm - 0.03 in Fog , Rain Light Rain
10:53 PM 52.0 °F - 51.1 °F 97% 29.73 in 10.0 mi Calm Calm - 0.01 in   Overcast
11:53 PM 51.1 °F - 50.0 °F 96% 29.72 in 2.0 mi West 3.5 mph - N/A   Overcast